FW7648 Weather Reports


Display with metric or nautical units.
time (UTC)temp
F
wind
direction
speed
MPH
gust
MPH
rain 1hr
in
rain 24hr
in
rain mn
in
humidity
%
barometer
mb
20260505091618 65 155 1.0 6.0 0.00 0.00 0.00 63 1010.4
20260505091056 65 157 1.0 12.0 0.00 0.00 0.00 62 1010.4
20260505090557 65 192 1.0 12.0 0.00 0.00 0.00 62 1010.3
20260505090120 65 0 2.0 12.0 0.00 0.00 0.00 62 1010.3
20260505085557 65 139 1.0 6.0 0.00 0.00 0.00 63 1010.2
20260505085059 65 205 1.0 6.0 0.00 0.00 0.00 62 1010.1
20260505084615 65 163 2.0 7.0 0.00 0.00 0.00 62 1010.2
20260505084056 65 146 2.0 7.0 0.00 0.00 0.00 62 1010.0
20260505083600 65 158 0.0 3.0 0.00 0.00 0.00 62 1010.2
20260505083110 66 0 1.0 4.0 0.00 0.00 0.00 62 1010.1
20260505082557 66 134 1.0 6.0 0.00 0.00 0.00 62 1010.2
20260505082057 66 171 1.0 6.0 0.00 0.00 0.00 62 1010.1
20260505081604 66 205 1.0 5.0 0.00 0.00 0.00 62 1010.2
20260505081058 66 209 1.0 9.0 0.00 0.00 0.00 62 1010.1
20260505080557 66 0 1.0 9.0 0.00 0.00 0.00 62 1010.0
20260505075558 66 102 1.0 8.0 0.00 0.00 0.00 62 1010.0
20260505075057 66 169 2.0 7.0 0.00 0.00 0.00 62 1010.0
20260505074556 66 274 2.0 6.0 0.00 0.00 0.00 62 1009.9
20260505074057 66 111 1.0 6.0 0.00 0.00 0.00 62 1010.0
20260505073557 66 219 1.0 5.0 0.00 0.00 0.00 62 1009.9
20260505073103 66 126 1.0 5.0 0.00 0.00 0.00 62 1009.8
20260505072558 66 171 1.0 6.0 0.00 0.00 0.00 61 1009.9
20260505072058 66 150 1.0 6.0 0.00 0.00 0.00 61 1009.8
20260505071613 66 155 1.0 7.0 0.00 0.00 0.00 61 1009.8
20260505071101 67 137 2.0 8.0 0.00 0.00 0.00 61 1009.8
20260505070558 67 234 2.0 8.0 0.00 0.00 0.00 61 1009.8
20260505070059 67 153 1.0 8.0 0.00 0.00 0.00 61 1009.8
20260505065557 67 124 1.0 8.0 0.00 0.00 0.00 61 1009.9
20260505065057 66 136 2.0 7.0 0.00 0.00 0.00 61 1009.8
20260505064603 67 76 1.0 7.0 0.00 0.00 0.00 61 1009.9
20260505064057 67 212 1.0 7.0 0.00 0.00 0.00 60 1009.9
20260505063600 66 153 2.0 7.0 0.00 0.00 0.00 60 1010.0
20260505063100 66 232 2.0 8.0 0.00 0.00 0.00 60 1009.9
20260505062557 66 132 1.0 8.0 0.00 0.00 0.00 61 1009.9
20260505062056 66 146 2.0 8.0 0.00 0.00 0.00 61 1009.9
20260505061559 66 158 1.0 4.0 0.00 0.00 0.00 61 1010.2
20260505061056 66 0 1.0 5.0 0.00 0.00 0.00 61 1010.0
20260505060558 66 132 1.0 6.0 0.00 0.00 0.00 61 1010.0
20260505055558 65 119 1.0 5.0 0.00 0.00 0.00 62 1010.0
20260505055059 65 161 0.0 3.0 0.00 0.00 0.00 62 1010.1
20260505054557 65 133 1.0 3.0 0.00 0.00 0.00 62 1010.1
20260505054057 65 0 0.0 2.0 0.00 0.00 0.00 62 1010.0
20260505053557 65 139 0.0 3.0 0.00 0.00 0.00 63 1009.9
20260505053059 65 0 0.0 3.0 0.00 0.00 0.00 63 1010.0
20260505052557 64 139 0.0 3.0 0.00 0.00 0.00 65 1010.0
20260505052057 64 128 1.0 3.0 0.00 0.00 0.00 66 1010.0
20260505051556 63 0 0.0 2.0 0.00 0.00 0.00 68 1010.1
20260505051057 63 0 0.0 2.0 0.00 0.00 0.00 69 1010.1
20260505050557 62 0 0.0 1.0 0.00 0.00 0.00 71 1009.9
20260505041604 61 0 0.0 1.0 0.00 0.00 0.00 73 1009.7
20260505041056 61 0 0.0 1.0 0.00 0.00 0.00 73 1009.6
20260505040556 61 0 0.0 0.0 0.00 0.00 0.00 73 1009.6
20260505040058 61 0 0.0 1.0 0.00 0.00 0.00 75 1009.6
20260505035556 61 0 0.0 1.0 0.00 0.00 0.00 74 1009.6
20260505035058 62 0 0.0 1.0 0.00 0.00 0.00 72 1009.5
20260505034554 62 0 0.0 1.0 0.00 0.00 0.00 73 1009.5
20260505034056 62 0 0.0 1.0 0.00 0.00 0.00 73 1009.6
20260505033556 62 0 0.0 0.0 0.00 0.00 0.00 73 1009.5
20260505033055 62 0 0.0 2.0 0.00 0.00 0.00 73 1009.5
20260505032556 62 0 0.0 2.0 0.00 0.00 0.00 73 1009.5
20260505032056 62 136 0.0 0.0 0.00 0.00 0.00 74 1009.4
20260505031556 61 0 0.0 0.0 0.00 0.00 0.00 75 1009.4
20260505031056 61 0 0.0 0.0 0.00 0.00 0.00 76 1009.3
20260505030556 60 0 0.0 0.0 0.00 0.00 0.00 78 1009.3
20260505030117 60 0 0.0 0.0 0.00 0.00 0.00 79 1009.3
20260505025556 59 0 0.0 0.0 0.00 0.00 0.00 80 1009.2
20260505025100 59 0 0.0 0.0 0.00 0.00 0.00 80 1009.4
20260505024600 59 0 0.0 0.0 0.00 0.00 0.00 80 1009.3
20260505024056 59 0 0.0 0.0 0.00 0.00 0.00 79 1009.3
20260505023557 60 0 0.0 0.0 0.00 0.00 0.00 79 1009.3
20260505023055 61 0 0.0 0.0 0.00 0.00 0.00 77 1009.3
20260505022557 61 0 0.0 1.0 0.00 0.00 0.00 75 1009.2
20260505022059 62 0 0.0 1.0 0.00 0.00 0.00 74 1009.2
20260505021557 62 0 0.0 1.0 0.00 0.00 0.00 74 1009.1
20260505021055 63 0 0.0 1.0 0.00 0.00 0.00 72 1009.1
20260505020556 64 0 0.0 1.0 0.00 0.00 0.00 72 1009.2
20260505020101 64 0 0.0 0.0 0.00 0.00 0.00 72 1009.1
20260505015558 64 0 0.0 0.0 0.00 0.00 0.00 72 1009.2
20260505015057 63 0 0.0 0.0 0.00 0.00 0.00 73 1009.1
20260505014609 63 0 0.0 0.0 0.00 0.00 0.00 74 1009.1
20260505014059 62 0 0.0 0.0 0.00 0.00 0.00 75 1009.0
20260505013557 62 0 0.0 0.0 0.00 0.00 0.00 75 1009.0
20260505013058 63 0 0.0 0.0 0.00 0.00 0.00 75 1008.9
20260505012557 63 0 0.0 0.0 0.00 0.00 0.00 74 1009.1
20260505012153 64 0 0.0 0.0 0.00 0.00 0.00 73 1009.0
20260505011558 65 0 0.0 0.0 0.00 0.00 0.00 70 1009.0
20260505011101 65 0 0.0 0.0 0.00 0.00 0.00 70 1009.0
20260505010557 65 0 0.0 0.0 0.00 0.00 0.00 70 1008.9
20260505005601 66 0 0.0 1.0 0.00 0.00 0.00 68 1009.0
20260505005057 67 0 0.0 1.0 0.00 0.00 0.00 67 1008.8
20260505004555 67 0 0.0 1.0 0.00 0.00 0.00 67 1008.8
20260505004100 67 0 0.0 0.0 0.00 0.00 0.00 67 1008.9
20260505003556 68 0 0.0 0.0 0.00 0.00 0.00 66 1008.8
20260505003059 68 0 0.0 0.0 0.00 0.00 0.00 66 1008.8
20260505002556 69 0 0.0 1.0 0.00 0.00 0.00 64 1008.8
20260505002057 69 0 0.0 1.0 0.00 0.00 0.00 64 1008.9
20260505001559 69 0 0.0 1.0 0.00 0.00 0.00 63 1008.9
20260505001057 70 0 0.0 1.0 0.00 0.00 0.00 62 1009.0
20260505000557 71 0 0.0 1.0 0.00 0.00 0.00 61 1009.0
20260505000059 71 0 0.0 1.0 0.00 0.00 0.00 60 1009.0
20260504235557 71 0 0.0 1.0 0.00 0.00 0.00 60 1009.0
20260504235057 72 0 0.0 1.0 0.00 0.00 0.00 59 1008.9
20260504234555 72 0 0.0 2.0 0.00 0.00 0.00 59 1009.1
20260504234057 72 0 0.0 2.0 0.00 0.00 0.00 58 1009.1
20260504233557 73 0 0.0 2.0 0.00 0.00 0.00 57 1009.2
20260504233059 73 0 0.0 3.0 0.00 0.00 0.00 56 1009.2
20260504232559 73 0 0.0 3.0 0.00 0.00 0.00 56 1009.1
20260504232059 73 157 1.0 5.0 0.00 0.00 0.00 56 1009.0
20260504231556 73 145 1.0 5.0 0.00 0.00 0.00 56 1009.0
20260504231056 73 0 0.0 2.0 0.00 0.00 0.00 56 1009.1
20260504230600 73 0 0.0 2.0 0.00 0.00 0.00 56 1009.3
20260504230055 73 0 0.0 2.0 0.00 0.00 0.00 56 1009.4
20260504225557 73 165 0.0 3.0 0.00 0.00 0.00 56 1009.5
20260504225056 73 0 0.0 5.0 0.00 0.00 0.00 57 1009.6
20260504224555 73 234 2.0 5.0 0.00 0.00 0.00 55 1009.7
20260504224100 73 160 0.0 3.0 0.00 0.00 0.00 56 1009.8
20260504223601 73 107 0.0 2.0 0.00 0.00 0.00 57 1009.9
20260504223117 73 0 0.0 2.0 0.00 0.00 0.00 55 1009.9
20260504222557 73 108 1.0 2.0 0.00 0.00 0.00 55 1009.9
20260504222058 74 0 0.0 3.0 0.00 0.00 0.00 55 1010.0
20260504221555 74 159 0.0 3.0 0.00 0.00 0.00 55 1009.9
20260504221057 74 205 1.0 3.0 0.00 0.00 0.00 55 1010.1
20260504220557 74 129 0.0 3.0 0.00 0.00 0.00 55 1010.1
20260504215558 74 291 1.0 5.0 0.00 0.00 0.00 55 1010.0
20260504215057 73 238 1.0 8.0 0.00 0.00 0.00 56 1010.1
20260504214555 73 215 1.0 8.0 0.00 0.00 0.00 56 1010.2
20260504214100 73 265 2.0 7.0 0.00 0.00 0.00 55 1010.2
20260504213556 73 268 3.0 7.0 0.00 0.00 0.00 54 1010.3
20260504213106 73 298 1.0 7.0 0.00 0.00 0.00 55 1010.3
20260504212555 73 244 2.0 7.0 0.00 0.00 0.00 55 1010.4
20260504212058 73 184 0.0 7.0 0.00 0.00 0.00 54 1010.4
20260504211649 72 294 1.0 7.0 0.00 0.00 0.00 58 1010.3
20260504211059 71 201 3.0 9.0 0.00 0.00 0.00 57 1010.3
20260504210601 71 318 2.0 9.0 0.00 0.00 0.00 57 1010.2
20260504210056 72 351 4.0 8.0 0.00 0.00 0.00 56 1010.2
20260504205601 71 286 3.0 6.0 0.00 0.00 0.00 58 1010.2
20260504205056 70 238 2.0 8.0 0.00 0.00 0.00 58 1010.4
20260504204603 70 279 1.0 8.0 0.00 0.00 0.00 60 1010.3
20260504204057 70 306 1.0 8.0 0.00 0.00 0.00 58 1010.3
20260504203556 70 263 2.0 9.0 0.00 0.00 0.00 60 1010.3
20260504203107 70 200 1.0 9.0 0.00 0.00 0.00 61 1010.4
20260504202557 70 182 2.0 8.0 0.00 0.00 0.00 60 1010.2
20260504202057 71 259 2.0 10.0 0.00 0.00 0.00 57 1010.2
20260504201611 72 284 2.0 10.0 0.00 0.00 0.00 53 1009.9
20260504201056 72 338 3.0 10.0 0.00 0.00 0.00 52 1009.5
20260504200556 72 355 4.0 11.0 0.00 0.00 0.00 55 1009.9
20260504200057 72 286 2.0 11.0 0.00 0.00 0.00 54 1010.0
20260504195557 72 290 3.0 9.0 0.00 0.00 0.00 53 1009.9
20260504195057 73 197 3.0 9.0 0.00 0.00 0.00 53 1009.9
20260504194557 73 268 2.0 8.0 0.00 0.00 0.00 53 1010.0
20260504194057 72 0 3.0 10.0 0.00 0.00 0.00 53 1010.0
20260504193557 72 307 4.0 10.0 0.00 0.00 0.00 54 1010.0
20260504193107 72 223 3.0 10.0 0.00 0.00 0.00 54 1010.2
20260504192556 72 298 3.0 10.0 0.00 0.00 0.00 54 1010.2
20260504192056 73 214 2.0 8.0 0.00 0.00 0.00 54 1010.1
20260504191611 72 306 2.0 10.0 0.00 0.00 0.00 54 1010.2
20260504191058 73 303 1.0 10.0 0.00 0.00 0.00 55 1010.3
20260504190558 72 177 3.0 9.0 0.00 0.00 0.00 54 1010.5
20260504190109 73 237 2.0 8.0 0.00 0.00 0.00 53 1010.6
20260504185557 73 277 3.0 12.0 0.00 0.00 0.00 53 1010.6
20260504185100 73 256 2.0 12.0 0.00 0.00 0.00 53 1010.7
20260504184556 73 257 2.0 8.0 0.00 0.00 0.00 54 1010.7
20260504184057 73 140 2.0 10.0 0.00 0.00 0.00 56 1010.8
20260504183600 72 180 1.0 10.0 0.00 0.00 0.00 55 1010.9
20260504183057 71 201 3.0 10.0 0.00 0.00 0.00 54 1011.0
20260504182558 71 216 1.0 9.0 0.00 0.00 0.00 56 1011.0
20260504182057 71 94 3.0 9.0 0.00 0.00 0.00 56 1011.0
20260504181603 71 116 1.0 8.0 0.00 0.00 0.00 58 1011.2
20260504181058 70 0 2.0 8.0 0.00 0.00 0.00 57 1011.2
20260504180557 70 236 2.0 8.0 0.00 0.00 0.00 57 1011.1
20260504180056 70 265 2.0 9.0 0.00 0.00 0.00 55 1011.1
20260504175559 71 115 3.0 9.0 0.00 0.00 0.00 55 1011.2
20260504175057 72 140 3.0 9.0 0.00 0.00 0.00 54 1011.1
20260504174556 71 147 2.0 10.0 0.00 0.00 0.00 57 1011.0
20260504174058 71 150 2.0 10.0 0.00 0.00 0.00 57 1011.0
20260504173600 71 306 3.0 8.0 0.00 0.00 0.00 56 1011.0
20260504173059 71 245 3.0 10.0 0.00 0.00 0.00 56 1011.0
20260504172557 71 252 2.0 10.0 0.00 0.00 0.00 59 1011.0
20260504172057 70 186 3.0 11.0 0.00 0.00 0.00 58 1011.2
20260504171557 70 281 3.0 11.0 0.00 0.00 0.00 59 1011.3
20260504171057 69 119 4.0 10.0 0.00 0.00 0.00 60 1011.5
20260504170558 69 215 2.0 8.0 0.00 0.00 0.00 60 1011.5
20260504151101 64 171 4.0 9.0 0.00 0.00 0.00 62 1013.1
20260504150557 64 198 2.0 7.0 0.00 0.00 0.00 63 1013.2
20260504141056 60 146 2.0 10.0 0.00 0.00 0.00 63 1013.7
20260504140556 60 169 2.0 11.0 0.00 0.00 0.00 62 1013.7
20260504130557 59 234 1.0 4.0 0.00 0.00 0.00 61 1013.4
20260504120103 54 161 1.0 7.0 0.00 0.00 0.00 65 1013.5
20260504110556 48 134 0.0 1.0 0.00 0.00 0.00 76 1013.3
20260504100557 47 0 0.0 1.0 0.00 0.00 0.00 77 1013.6